CZ-6A DEB

Satellite information

Favourite Embed

Satellite Type and Status

DEBRISIN ORBIT

Key statistics

Satellite CZ-6A DEB at a glance.

Uptime

910

Days in orbit

Revolutions

≈ 14.3

Per day

Orbit

SSO

Sun Synchronous Orbit

Inclination

98.8

Latest

Satellite identification and parameters

Extended collection of information and parameters for CZ-6A DEB.

Object identification

Identified? True

Debris? True

Object name: CZ-6A DEB

International designator: 2022-151LM

Object number (NORAD): 54561

Object ID (CCSDS): 54561

Country: PEOPLES REPUBLIC OF CHINA (PRC)

Current information (Y/N): Y

RCS size: SMALL

Orbital parameters

Period: 100.68 minutes

Inclination: 98.8228 deg

SMA: 7168.948 km

Apoapsis: 887.925 km

Periapsis: 693.702 km

RAAN: 161.8479 deg

Eccentricy: 0.0135461

Argument of periapsis: 217.6597 deg

Mean anomaly: 141.5042 deg

Mean motion: 14.30275151 rev/day

Mean motion (dot): 0.00001684 rev/day2

B* drag term: 0.00060441 1/REarth

Two-line elements (TLE)

Creation date: May 9, 2025, 2:46 a.m.

Reference frame: TEME

Reference center: EARTH

Epoch: May 8, 2025, 3:16 p.m. UTC

TLE line 0: 0 CZ-6A DEB

TLE line 1: 1 54561U 22151LM 25128.63656617 .00001684 00000-0 60441-3 0 9997

TLE line 2: 2 54561 98.8228 161.8479 0135461 217.6597 141.5042 14.30275151129337

Live tracking on map

Real-time ground track for satellite CZ-6A DEB.

In-orbit conjunctions

A list of the most updated potential collisions computed for object CZ-6A DEB.

Target Orbit TCA Probability of collision Miss distance Type
CZ-6A DEB LEO 2025-02-28 05:57:08 0.0001283146 915.0 (m) DEBRIS
SL-3 R/B LEO 2025-01-04 19:03:51 0.0003499788 121.0 (m) ROCKET BODY
CZ-6A DEB LEO 2024-12-13 17:43:58 0.0001030976 805.0 (m) DEBRIS
METEOR 1-11 LEO 2024-11-03 15:42:39 0.000105289 319.0 (m) PAYLOAD

Associated space launch

Chinese satellite reported for atmospheric/ocean/environmental/spatial parameter research purposes, details TBD.

CZ-6A DEB was lifted into orbit during the mission ‘Long March 6A | Yunhai 3’, on board a Long March 6A space rocket.

The launch took place on Nov. 11, 2022, 10:52 p.m. from Launch Complex 9A.

For more information about the launch, click the button.

Launch to space Long March 6A | Yunhai 3
Long March 6A | Yunhai 3

Agency: N/A

Status: Launch Successful

Launch date: Nov. 11, 2022, 10:52 p.m. UTC

Rocket: Long March 6A

Launch pad: Launch Complex 9A

Location: Taiyuan Satellite Launch Center, People's Republic of China

...

Latest news about this satellite

There are no fresh news available about this satellite. Check back as we update our databases every day.


Newsletter sign-up

Weekly statistics, charts and insights to help you stay on top of the space industry.